Location: Berg
(47.2344°N, 9.5296°E)
Time: 15:48:27
(UTC+00:00)

Cosmos 44 - Pass Details

Date: 11 May 2021
Orbit: 571 x 791 km, 65.1° (Epoch: 13 June)

Event Time Altitude Azimuth Distance (km) Brightness Sun altitude
Rises 21:42:36 0° 323° (NW) 3,296 8.2 -21.2°
Reaches altitude 10° 21:45:04 10° 324° (NW) 2,359 7.1 -21.4°
Maximum altitude 21:50:32 84° 53° (NE) 784 3.5 -21.7°
Enters shadow 21:52:00 49° 136° (SE) 982 3.6 -21.8°
